Location: Hains Lake
(37.8540°N, 99.8578°W)
Time: 21:57:58
(UTC+00:00)

deb Explorer IX - Pass Details

Date: 21 April 2021
Orbit: 541 x 1098 km, 38.8° (Epoch: 13 May)

Event Time Altitude Azimuth Distance (km) Brightness Sun altitude
Rises 13:59:36 0° 258° (WSW) 2,719 ? 23.4°
Reaches altitude 10° 14:01:45 10° 259° (WSW) 1,860 ? 23.8°
Maximum altitude 14:06:00 89° 184° (S) 613 ? 24.7°
Drops below altitude 10° 14:10:50 10° 80° (E) 2,108 ? 25.6°
Sets 14:13:24 0° 81° (E) 3,117 ? 26.1°
